• In Österreich
  • Länderverzeichnis
  • Für 7 Tage
  • Wassertemperatur
  • Satellitenkarten
  • Wetterkarte
  • News
  • Widgets
  • user-avatar
    Anmelden

    Stündliche Wetter Holhol

    Heute, 20 Oktober, Freitag

    Zeit Temperatur Niederschläge Wind Luftdruck Luftfeuchtigkeit
    00:00 +28°C° 0 mm 2 m/S 714 mmHg 58%
    01:00 +28°C° 0 mm 2 m/S 714 mmHg 60%
    02:00 +28°C° 0 mm 2 m/S 713 mmHg 62%
    03:00 +27°C° 0 mm 1 m/S 713 mmHg 63%
    04:00 +27°C° 0 mm 1 m/S 713 mmHg 64%
    05:00 +27°C° 0 mm 1 m/S 714 mmHg 66%
    06:00 +27°C° 0 mm 1 m/S 714 mmHg 67%
    07:00 +28°C° 0 mm 1 m/S 714 mmHg 61%
    08:00 +29°C° 0 mm 2 m/S 715 mmHg 55%
    09:00 +30°C° 0 mm 2 m/S 715 mmHg 49%
    10:00 +31°C° 0 mm 3 m/S 715 mmHg 44%
    11:00 +34°C° 0 mm 3 m/S 715 mmHg 39%
    12:00 +35°C° 0 mm 4 m/S 715 mmHg 34%
    13:00 +35°C° 0 mm 5 m/S 714 mmHg 33%
    14:00 +36°C° 0 mm 5 m/S 714 mmHg 32%
    15:00 +36°C° 0 mm 5 m/S 713 mmHg 31%
    16:00 +35°C° 0 mm 5 m/S 713 mmHg 34%
    17:00 +34°C° 0 mm 4 m/S 713 mmHg 38%
    18:00 +33°C° 0 mm 4 m/S 713 mmHg 41%
    19:00 +31°C° 0 mm 3 m/S 714 mmHg 43%
    20:00 +31°C° 0 mm 3 m/S 714 mmHg 45%
    21:00 +30°C° 0 mm 2 m/S 714 mmHg 47%
    22:00 +30°C° 0 mm 2 m/S 714 mmHg 50%
    23:00 +29°C° 0 mm 2 m/S 714 mmHg 52%

    Morgen, 21 Oktober, Samstag

    Zeit Temperatur Niederschläge Wind Luftdruck Luftfeuchtigkeit
    00:00 +29°C° 0 mm 2 m/S 714 mmHg 55%
    01:00 +28°C° 0 mm 2 m/S 714 mmHg 57%
    02:00 +28°C° 0 mm 2 m/S 714 mmHg 58%
    03:00 +28°C° 0 mm 1 m/S 713 mmHg 60%
    04:00 +27°C° 0 mm 2 m/S 713 mmHg 62%
    05:00 +27°C° 0 mm 2 m/S 714 mmHg 64%
    06:00 +27°C° 0 mm 2 m/S 714 mmHg 65%
    07:00 +28°C° 0 mm 2 m/S 714 mmHg 60%
    08:00 +29°C° 0 mm 2 m/S 715 mmHg 54%
    09:00 +30°C° 0 mm 3 m/S 715 mmHg 49%
    10:00 +31°C° 0 mm 3 m/S 715 mmHg 43%
    11:00 +34°C° 0 mm 3 m/S 715 mmHg 37%
    12:00 +35°C° 0 mm 4 m/S 715 mmHg 32%
    13:00 +36°C° 0 mm 4 m/S 714 mmHg 31%
    14:00 +36°C° 0 mm 5 m/S 713 mmHg 31%
    15:00 +36°C° 0 mm 5 m/S 713 mmHg 30%
    16:00 +35°C° 0 mm 5 m/S 713 mmHg 33%
    17:00 +34°C° 0 mm 4 m/S 713 mmHg 37%
    18:00 +33°C° 0 mm 4 m/S 713 mmHg 40%
    19:00 +33°C° 0 mm 4 m/S 713 mmHg 42%
    20:00 +31°C° 0 mm 3 m/S 714 mmHg 45%
    21:00 +30°C° 0 mm 3 m/S 714 mmHg 47%
    22:00 +30°C° 0 mm 3 m/S 714 mmHg 50%
    23:00 +29°C° 0 mm 2 m/S 714 mmHg 52%

    übermorgen, 22 Oktober, Sonntag

    Zeit Temperatur Niederschläge Wind Luftdruck Luftfeuchtigkeit
    00:00 +29°C° 0 mm 2 m/S 714 mmHg 55%
    01:00 +28°C° 0 mm 2 m/S 713 mmHg 57%
    02:00 +28°C° 0 mm 2 m/S 713 mmHg 60%
    03:00 +28°C° 0 mm 1 m/S 712 mmHg 62%
    04:00 +27°C° 0 mm 1 m/S 713 mmHg 63%
    05:00 +27°C° 0 mm 1 m/S 713 mmHg 64%
    06:00 +27°C° 0 mm 1 m/S 713 mmHg 66%
    07:00 +28°C° 0 mm 2 m/S 714 mmHg 59%
    08:00 +29°C° 0 mm 2 m/S 714 mmHg 53%
    09:00 +31°C° 0 mm 2 m/S 715 mmHg 46%
    10:00 +33°C° 0 mm 3 m/S 714 mmHg 41%
    11:00 +34°C° 0 mm 3 m/S 714 mmHg 36%
    12:00 +36°C° 0 mm 3 m/S 714 mmHg 31%
    13:00 +36°C° 0 mm 4 m/S 713 mmHg 30%
    14:00 +36°C° 0 mm 4 m/S 712 mmHg 29%
    15:00 +37°C° 0 mm 5 m/S 712 mmHg 28%
    16:00 +36°C° 0 mm 5 m/S 712 mmHg 32%
    17:00 +35°C° 0 mm 4 m/S 712 mmHg 36%
    18:00 +33°C° 0 mm 4 m/S 712 mmHg 40%
    19:00 +33°C° 0 mm 4 m/S 712 mmHg 41%
    20:00 +31°C° 0 mm 3 m/S 713 mmHg 43%
    21:00 +31°C° 0 mm 2 m/S 713 mmHg 45%
    22:00 +30°C° 0 mm 2 m/S 713 mmHg 47%
    23:00 +30°C° 0 mm 2 m/S 713 mmHg 48%

    23 Oktober, Montag

    Zeit Temperatur Niederschläge Wind Luftdruck Luftfeuchtigkeit
    00:00 +29°C° 0 mm 2 m/S 713 mmHg 50%
    01:00 +29°C° 0 mm 2 m/S 712 mmHg 53%
    02:00 +28°C° 0 mm 2 m/S 712 mmHg 56%
    03:00 +28°C° 0 mm 1 m/S 711 mmHg 59%
    04:00 +28°C° 0 mm 1 m/S 712 mmHg 61%
    05:00 +27°C° 0 mm 1 m/S 712 mmHg 63%
    06:00 +27°C° 0 mm 1 m/S 712 mmHg 65%
    07:00 +28°C° 0 mm 1 m/S 713 mmHg 58%
    08:00 +30°C° 0 mm 2 m/S 714 mmHg 51%
    09:00 +31°C° 0 mm 2 m/S 714 mmHg 44%
    10:00 +33°C° 0 mm 3 m/S 714 mmHg 39%
    11:00 +34°C° 0 mm 3 m/S 713 mmHg 35%
    12:00 +36°C° 0 mm 4 m/S 713 mmHg 31%
    13:00 +36°C° 0 mm 4 m/S 712 mmHg 30%
    14:00 +36°C° 0 mm 5 m/S 712 mmHg 30%
    15:00 +36°C° 0 mm 5 m/S 711 mmHg 30%
    16:00 +35°C° 0 mm 5 m/S 711 mmHg 33%
    17:00 +34°C° 0 mm 5 m/S 711 mmHg 36%
    18:00 +33°C° 0 mm 4 m/S 712 mmHg 39%
    19:00 +33°C° 0 mm 4 m/S 712 mmHg 41%
    20:00 +31°C° 0 mm 3 m/S 713 mmHg 43%
    21:00 +31°C° 0 mm 2 m/S 713 mmHg 45%
    22:00 +30°C° 0 mm 3 m/S 713 mmHg 48%
    23:00 +30°C° 0 mm 3 m/S 713 mmHg 51%

    24 Oktober, Dienstag

    Zeit Temperatur Niederschläge Wind Luftdruck Luftfeuchtigkeit
    00:00 +29°C° 0 mm 3 m/S 713 mmHg 55%
    01:00 +29°C° 0 mm 3 m/S 712 mmHg 59%
    02:00 +28°C° 0 mm 2 m/S 712 mmHg 62%
    03:00 +28°C° 0 mm 2 m/S 711 mmHg 66%
    04:00 +28°C° 0 mm 2 m/S 712 mmHg 68%
    05:00 +27°C° 0 mm 2 m/S 712 mmHg 70%
    06:00 +27°C° 0 mm 2 m/S 713 mmHg 72%
    07:00 +28°C° 0 mm 3 m/S 713 mmHg 66%
    08:00 +29°C° 0 mm 3 m/S 714 mmHg 59%
    09:00 +32°C° 0 mm 4 m/S 715 mmHg 53%
    10:00 +33°C° 0 mm 5 m/S 714 mmHg 47%
    11:00 +34°C° 0 mm 6 m/S 714 mmHg 40%
    12:00 +36°C° 0 mm 6 m/S 713 mmHg 34%
    13:00 +35°C° 0 mm 7 m/S 712 mmHg 35%
    14:00 +35°C° 0 mm 7 m/S 712 mmHg 35%
    15:00 +35°C° 0 mm 7 m/S 711 mmHg 36%
    16:00 +34°C° 0 mm 7 m/S 712 mmHg 43%
    17:00 +32°C° 0 mm 6 m/S 712 mmHg 50%
    18:00 +30°C° 0 mm 6 m/S 712 mmHg 57%
    19:00 +30°C° 0 mm 5 m/S 713 mmHg 61%
    20:00 +29°C° 0 mm 5 m/S 713 mmHg 65%
    21:00 +29°C° 0 mm 5 m/S 714 mmHg 69%
    22:00 +28°C° 0 mm 5 m/S 714 mmHg 70%
    23:00 +28°C° 0 mm 5 m/S 714 mmHg 71%

    25 Oktober, Mittwoch

    Zeit Temperatur Niederschläge Wind Luftdruck Luftfeuchtigkeit
    00:00 +28°C° 0 mm 5 m/S 714 mmHg 72%
    01:00 +28°C° 0 mm 5 m/S 713 mmHg 72%
    02:00 +28°C° 0 mm 4 m/S 713 mmHg 73%
    03:00 +27°C° 0 mm 4 m/S 713 mmHg 74%
    04:00 +27°C° 0 mm 4 m/S 714 mmHg 74%
    05:00 +27°C° 0 mm 5 m/S 714 mmHg 75%
    06:00 +27°C° 0 mm 5 m/S 715 mmHg 75%
    07:00 +28°C° 0,1 mm 5 m/S 715 mmHg 71%
    08:00 +29°C° 0,1 mm 6 m/S 716 mmHg 67%
    09:00 +29°C° 0,1 mm 6 m/S 716 mmHg 63%
    10:00 +30°C° 0 mm 7 m/S 716 mmHg 59%
    11:00 +32°C° 0 mm 7 m/S 715 mmHg 55%
    12:00 +33°C° 0 mm 7 m/S 715 mmHg 50%
    13:00 +33°C° 0 mm 7 m/S 714 mmHg 49%
    14:00 +33°C° 0 mm 8 m/S 714 mmHg 48%
    15:00 +34°C° 0 mm 8 m/S 713 mmHg 47%
    16:00 +33°C° 0 mm 7 m/S 713 mmHg 51%
    17:00 +32°C° 0 mm 7 m/S 714 mmHg 54%
    18:00 +29°C° 0 mm 6 m/S 714 mmHg 57%
    19:00 +29°C° 0 mm 6 m/S 714 mmHg 59%
    20:00 +28°C° 0 mm 5 m/S 715 mmHg 62%
    21:00 +28°C° 0 mm 5 m/S 715 mmHg 64%
    22:00 +28°C° 0 mm 5 m/S 715 mmHg 66%
    23:00 +27°C° 0 mm 5 m/S 715 mmHg 68%
    Mehr zeigen